COSMOS 1691 DEB, 19111

Orbit data source: Space-Track

COSMOS 1691 DEB, 19111 is space debris in LEO originally from a launch on Wed, 09 Oct 1985 UTC launched from the Plesetsk Missile And Space Complex (PKMTR). Debris objects in space refer to the collection of defunct objects orbiting the Earth. Examples of debris include non-operational satellites, rocket bodies, and fragments generated from explosions, collisions, or faulty payload assembly.

Loading next visibility...
Identifier
19111, 1985-094W
Orbit
LEO
Country
Flag of CISCIS
Related business
Manufacturer
Unknown
Mission
Spacecraft
Bus & Motor
Unknown
Mass
Unknown
Launch date (UTC)
1985-10-09 (41 years ago)
Launch vehicle
Unknown
Launch site
Plesetsk Missile And Space Complex (PKMTR)
Object type
Payload
Rocket body
Debris
Shape & HBR
Unknown shape, 0.1 m
Radar Cross Section
Small (<0.1 m²)

Expand to show TLE details & history
Last TLE update: 1 day ago

TLE from 1 day ago
0 COSMOS 1691 DEB
1 19111U 85094W   26126.26213394  .00000260  00000-0  12514-2 0  9999
2 19111  82.6063 232.1006 0017715 159.5692 229.6200 12.70245310767974
Epoch: 2026-05-06T06:17Z
TLE epoch observation values (Epoch: 2026-05-06T06:17:28.372Z)
Latitude
28.81303°
Longitude
-82.31994°
Altitude
1,393.301 km
Speed
7.161 km/s
True Right ascension
15h 44m 41s
True Declination
28° 40' 48"
Sunlit
Object was in full shadow at epoch
Visualization orbit readout
Latitude
Unknown
Longitude
Unknown
Altitude
Unknown
Speed
Unknown
Apparent Right ascension
Unknown
Apparent Declination
Unknown
Sunlit
N/A
Visualization observer readout
Local Sidereal Time
19:53:19
Azimuth
Unknown
Elevation
Unknown
Doppler factor
Unknown
Orbital elements
Apogee altitude
1,391.99 km
Perigee altitude
1,364.509 km
Semi-major axis
7,756.386 km
Eccentricity
0.00177
Inclination
82.6063°
RAAN
232.1006°
Arg. of periapsis
159.5692°
True anomaly
229.46558°
Mean anomaly
229.62°
Eccentric anomaly
229.54277°
Mean motion
3.17727 °/min
Orbital period
113.3 mins
BSTAR
0.0012514
Loading maneuver chart data...
Computing Atmospheric mass density...
Loading historical data...
Loading historical data...
Loading historical data...
Loading historical data...
Loading historical data...
Loading historical data...
Loading historical data...

Documentation

Showing up to 5 results
|